This demonstration page uses our WeatherBlox Daily Observations layout. Learn more.

Left ArrowRight Arrow

38.88101, -77.10428

Hourly Observations for December 19, 2020

Temp ( °F °C ) Dew Point ( °F °C ) Humidity (%) Winds ( mph kmh ) Pressure ( in mb ) Visibility ( mi km ) Precip ( " mm )
12:52 am 00:52 Partly Cloudy 31 -0.6 23 -5 72 72 NE 10 17 30.42 1030 10 16 0.00 0.00
1:52 am 01:52 Partly Cloudy 30 -1.1 22 -5.6 72 72 NNE 8 13 30.43 1030 10 16 0.00 0.00
2:52 am 02:52 Mostly Cloudy 30 -1.1 22 -5.6 72 72 N 8 13 30.45 1031 10 16 0.00 0.00
3:52 am 03:52 Mostly Cloudy 29 -1.7 21 -6.1 72 72 NNW 5 7 30.45 1031 10 16 0.00 0.00
4:52 am 04:52 Mostly Cloudy 29 -1.7 21 -6.1 72 72 NNW 5 7 30.45 1031 10 16 0.00 0.00
5:52 am 05:52 Cloudy 28 -2.2 21 -6.1 75 75 NNW 5 7 30.44 1031 10 16 0.00 0.00
6:52 am 06:52 Mostly Cloudy 30 -1.1 21 -6.1 69 69 Calm 30.45 1031 10 16 0.00 0.00
7:52 am 07:52 Mostly Cloudy 29 -1.7 21 -6.1 72 72 Calm 30.45 1031 10 16 0.00 0.00
8:52 am 08:52 Mostly Cloudy 31 -0.6 24 -4.4 76 76 Calm 30.45 1031 10 16 0.00 0.00
9:52 am 09:52 Mostly Cloudy 32 0 25 -3.9 75 75 Calm 30.46 1031 10 16 0.00 0.00
10:52 am 10:52 Mostly Cloudy 32 0 25 -3.9 75 75 S 5 7 30.44 1031 10 16 0.00 0.00
11:52 am 11:52 Mostly Cloudy 35 1.7 26 -3.3 70 70 S 6 9 30.42 1030 10 16 0.00 0.00
12:52 pm 12:52 Mostly Cloudy 36 2.2 27 -2.8 70 70 SSE 6 9 30.38 1029 10 16 0.00 0.00
1:52 pm 13:52 Mostly Cloudy 37 2.8 28 -2.2 70 70 S 7 11 30.37 1029 10 16 0.00 0.00
2:52 pm 14:52 Mostly Cloudy 37 2.8 27 -2.8 67 67 S 7 11 30.36 1028 10 16 0.00 0.00
3:52 pm 15:52 Cloudy 37 2.8 27 -2.8 67 67 SSE 6 9 30.37 1028 10 16 0.00 0.00
4:52 pm 16:52 Cloudy 36 2.2 27 -2.8 70 70 S 6 9 30.36 1028 10 16 0.00 0.00
5:52 pm 17:52 Cloudy 36 2.2 28 -2.2 73 73 SSE 6 9 30.36 1028 10 16 0.00 0.00
6:52 pm 18:52 Cloudy 36 2.2 27 -2.8 70 70 SE 6 9 30.32 1027 10 16 0.00 0.00
7:52 pm 19:52 Mostly Cloudy 35 1.7 26 -3.3 70 70 SSE 5 7 30.35 1028 10 16 0.00 0.00
8:52 pm 20:52 Mostly Cloudy 34 1.1 27 -2.8 76 76 S 7 11 30.31 1026 10 16 0.00 0.00
9:52 pm 21:52 Cloudy 34 1.1 27 -2.8 76 76 SSE 5 7 30.30 1026 10 16 0.00 0.00
10:52 pm 22:52 Cloudy 34 1.1 28 -2.2 79 79 SSE 5 7 30.29 1026 10 16 0.00 0.00
11:52 pm 23:52 Cloudy 34 1.1 29 -1.7 82 82 SSE 3 6 30.27 1025 10 16 0.00 0.00

Powered by AerisWeather